Regional Weather Roundup
Issued by NWS Little Rock, AR

Home | Current Version | Previous Version | Text Only | Print | Product List | Glossary Off
Versions: 1 2 3 4 5 6 7 8 9 10 11 12 13 14 15 16 17 18 19 20 21 22 23 24 25 26 27 28 29 30 31 32

000
ASUS44 KLZK 230505
RWRLZK

WEATHER ROUNDUP FOR ARKANSAS
NATIONAL WEATHER SERVICE LITTLE ROCK AR
1200 AM CDT SUN JUL 23 2017

NOTE: "FAIR" INDICATES FEW OR NO CLOUDS BELOW 12,000 FEET WITH NO
SIGNIFICANT WEATHER AND/OR OBSTRUCTIONS TO VISIBILITY.

ARZ001-003-010-029-230600-
NORTHWEST ARKANSAS

CITY           SKY/WX    TMP DP  RH WIND       PRES   REMARKS
FAYETTEVILLE   CLEAR     75  74  96 S6        29.94R
FORT SMITH     CLEAR     85  73  67 S5        29.89S HX  91
HARRISON       CLEAR     75  71  87 S5        29.94R
BENTONVILLE    CLEAR     81  70  69 CALM      29.94R
ROGERS         CLEAR     82  72  71 CALM      29.95R HX  87
SILOAM SPGS    CLEAR     79  66  65 S8        29.93R
HIGHFILL       CLEAR     79  72  79 S6        29.93S
$$

ARZ004-005-016-230600-
NORTH CENTRAL ARKANSAS

CITY           SKY/WX    TMP DP  RH WIND       PRES   REMARKS
BATESVILLE     CLEAR     84  73  70 SW5       29.90R HX  91
FLIPPIN        CLEAR     81  70  69 CALM      29.89R
MTN HOME       CLEAR     80  72  76 CALM      29.91R
$$

ARZ040-041-230600-
WEST CENTRAL ARKANSAS

CITY           SKY/WX    TMP DP  RH WIND       PRES   REMARKS
MENA           CLEAR     77  75  94 CALM      29.95S
MOUNT IDA      CLEAR     77  73  87 CALM      29.90F
$$

ARZ009-017-025-026-028-230600-
NORTHEAST ARKANSAS

CITY           SKY/WX    TMP DP  RH WIND       PRES   REMARKS
JONESBORO      CLEAR     84  77  79 SW7       29.88S HX  94
WALNUT RIDGE   CLEAR     82  73  74 S8        29.88S HX  88
BLYTHEVILLE    CLEAR     83  76  79 SW6       29.89S HX  91
$$

ARZ022-023-033-042-044-230600-
CENTRAL ARKANSAS

CITY           SKY/WX    TMP DP  RH WIND       PRES   REMARKS
LITTLE ROCK    PTCLDY    81  78  91 S9        29.90F HX  89
N LITTLE ROCK    N/A     83  76  79 SW3       29.88F HX  92
JACKSONVILLE   CLEAR     84  77  77 S7        29.89F HX  94
CONWAY           N/A     82  75  78 S5        29.87F HX  89
SEARCY         CLEAR     81  78  91 SW5       29.91F HX  89
HOT SPRINGS    CLEAR     82  75  79 E3        29.92F HX  89
RUSSELLVILLE   CLEAR     80  74  81 SE3       29.89S HX  85
CLINTON        FAIR      77  75  94 CALM      29.91S
$$

ARZ036-230600-
EAST ARKANSAS

CITY           SKY/WX    TMP DP  RH WIND       PRES   REMARKS
WEST MEMPHIS   CLEAR     80  77  90 S5        29.89F HX  87
$$

ARZ050-053-066-070-073-230600-
SOUTHWEST ARKANSAS

CITY           SKY/WX    TMP DP  RH WIND       PRES   REMARKS
ARKADELPHIA    FAIR      80  76  87 CALM      29.91F HX  86
CAMDEN         MOCLDY    77  72  83 CALM      29.92R
TEXARKANA      PTCLDY    82  74  76 S8        29.91S HX  88
EL DORADO      PTCLDY    77  73  87 S7        29.94R
DE QUEEN       CLOUDY    78  78 100 CALM      29.88F FOG
$$

ARZ056-057-069-230600-
SOUTHEAST ARKANSAS

CITY           SKY/WX    TMP DP  RH WIND       PRES   REMARKS
PINE BLUFF     PTCLDY    78  74  87 S5        29.91F
STUTTGART      PTCLDY    82  64  54 S8        29.92S
MONTICELLO     PTCLDY    78  72  81 S5        29.94R

$$






USA.gov is the U.S. government's official web portal to all federal, state and local government web resources and services.